Weather History for KMTN - March, 2013

Change the Weather History Date:

Sunday, March 31, 2013

  Actual Average Record
Temperature  
Mean Temperature 44 °F -  
Max Temperature 53 °F 55 °F 75 °F (1998)
Min Temperature 35 °F 39 °F 30 °F (2003)
Degree Days  
Heating Degree Days 21    
Moisture  
Dew Point 40 °F    
Average Humidity 88    
Maximum Humidity 100    
Minimum Humidity 67    
Precipitation  
Precipitation 0.00 in - - ()
Sea Level Pressure  
Sea Level Pressure 30.00 in    
Wind  
Wind Speed 1 mph (SSE)    
Max Wind Speed 8 mph    
Max Gust Speed -    
Visibility 8 miles    
Events Rain    
Averages and records for this station are not official NWS values.
T = Trace of Precipitation, MM = Missing Value Source: NWS Daily Summary

Daily Weather History Graph

Daily Weather History Graph

Search for Another Location

Airport or City:

Trip Planner

Search our weather history database for the weather conditions in past years. The results will help you decide how hot, cold, wet, or windy it might be!

Date:

Astronomy

Mar. 31, 2013 Rise Set
Actual Time 6:51 AM EDT 7:28 PM EDT
Civil Twilight 6:24 AM EDT 7:55 PM EDT
Nautical Twilight 5:52 AM EDT 8:27 PM EDT
Astronomical Twilight 5:19 AM EDT 9:00 PM EDT
Moon No Moon Rise 9:38 AM EDT
Length of Visible Light 13h 31m
Length of Day
12h 37m
Waning Gibbous, 78% of the Moon is Illuminated
Mar 31
Waning Gibbous
Apr 3
Last Quarter
Apr 10
New
Apr 18
First Quarter
Apr 25
Full

Hourly Weather History & Observations

Time (EDT) Temp. Windchill Dew Point Humidity Pressure Visibility Wind Dir Wind Speed Gust Speed Precip Events Conditions
12:18 AM 37.4 °F - 32.0 °F 81% 30.15 in 10.0 mi Calm Calm - N/A   Clear
12:39 AM 39.2 °F - 32.0 °F 75% 30.15 in 10.0 mi Calm Calm - N/A   Clear
12:57 AM 37.4 °F - 32.0 °F 81% 30.15 in 10.0 mi Calm Calm - N/A   Clear
1:18 AM 39.2 °F - 35.6 °F 87% 30.15 in 10.0 mi Calm Calm - N/A   Clear
1:39 AM 37.4 °F - 33.8 °F 87% 30.14 in 10.0 mi Calm Calm - N/A   Clear
1:57 AM 37.4 °F - 33.8 °F 87% 30.14 in 10.0 mi Calm Calm - N/A   Clear
2:18 AM 35.6 °F - 32.0 °F 87% 30.14 in 10.0 mi Calm Calm - N/A   Clear
2:39 AM 35.6 °F - 33.8 °F 93% 30.13 in 10.0 mi Calm Calm - N/A   Clear
2:57 AM 35.6 °F - 33.8 °F 93% 30.13 in 10.0 mi Calm Calm - N/A   Clear
3:18 AM 37.4 °F - 33.8 °F 87% 30.12 in 10.0 mi Calm Calm - N/A   Clear
3:39 AM 35.6 °F - 33.8 °F 93% 30.12 in 10.0 mi Calm Calm - N/A   Clear
3:57 AM 37.4 °F - 35.6 °F 93% 30.12 in 10.0 mi Calm Calm - N/A   Clear
4:18 AM 37.4 °F - 33.8 °F 87% 30.11 in 10.0 mi Calm Calm - N/A   Clear
4:39 AM 35.6 °F - 33.8 °F 93% 30.10 in 10.0 mi Calm Calm - N/A   Clear
5:00 AM 37.4 °F - 35.6 °F 93% 30.09 in 10.0 mi Calm Calm - N/A   Clear
5:18 AM 35.6 °F - 33.8 °F 93% 30.09 in 10.0 mi Calm Calm - N/A   Clear
5:33 AM 35.6 °F - 35.6 °F 100% 30.09 in 10.0 mi Calm Calm - N/A   Clear
5:45 AM 37.4 °F - 35.6 °F 93% 30.08 in 10.0 mi Calm Calm - N/A   Partly Cloudy
6:50 AM 39.2 °F 35.0 °F 37.4 °F 93% 30.06 in 10.0 mi NNW 5.8 mph - N/A   Scattered Clouds
7:50 AM 41.0 °F 37.1 °F 39.2 °F 93% 30.06 in 10.0 mi North 5.8 mph - N/A   Overcast
8:55 AM 46.4 °F - 39.2 °F 76% 30.05 in 10.0 mi Calm Calm - N/A   Overcast
9:55 AM 48.2 °F - 41.0 °F 76% 30.02 in 10.0 mi Calm Calm - N/A   Overcast
10:45 AM 48.2 °F - 41.0 °F 76% 30.01 in 10.0 mi ESE 5.8 mph - N/A   Overcast
11:45 AM 51.8 °F - 41.0 °F 67% 29.97 in 10.0 mi ESE 6.9 mph - N/A   Overcast
12:54 PM 51.8 °F - 42.8 °F 71% 29.92 in 10.0 mi ESE 4.6 mph - N/A   Overcast
1:45 PM 53.6 °F - 44.6 °F 72% 29.89 in 10.0 mi South 3.5 mph - N/A   Overcast
2:15 PM 51.8 °F - 46.4 °F 82% 29.87 in 2.0 mi South 6.9 mph - N/A Rain Rain
2:45 PM 50.0 °F - 48.2 °F 94% 29.85 in 2.0 mi SSE 8.1 mph - N/A Rain Rain
3:55 PM 50.0 °F - 48.2 °F 94% 29.80 in 2.0 mi East 4.6 mph - N/A Rain Rain
4:45 PM 50.0 °F - 48.2 °F 94% 29.79 in 1.5 mi Calm Calm - N/A   Drizzle
5:50 PM 50.0 °F - 50.0 °F 100% 29.77 in 1.5 mi Calm Calm - N/A   Overcast
6:45 PM 50.0 °F - 50.0 °F 100% 29.76 in 0.8 mi Calm Calm - N/A   Overcast
7:45 PM 50.0 °F - 50.0 °F 100% 29.76 in 0.5 mi Calm Calm - N/A   Overcast
10:21 PM 51.8 °F - 48.2 °F 88% 29.79 in 10.0 mi SW 4.6 mph - N/A   Mostly Cloudy
10:42 PM 51.8 °F - 48.2 °F 88% 29.79 in 10.0 mi SW 5.8 mph - N/A   Mostly Cloudy
11:21 PM 50.0 °F - 48.2 °F 94% 29.78 in 10.0 mi SSW 5.8 mph - N/A   Mostly Cloudy
11:42 PM 50.0 °F - 46.4 °F 87% 29.79 in 7.0 mi SSW 4.6 mph - N/A   Scattered Clouds